Weather History for KFSD - November, 2011

Change the Weather History Date:

Wednesday, November 30, 2011

  Actual Average Record
Temperature  
Mean Temperature 36 °F 24 °F  
Max Temperature 44 °F 34 °F 60 °F (1951)
Min Temperature 27 °F 15 °F -17 °F (1964)
Degree Days  
Heating Degree Days 29 41  
Month to date heating degree days 854 971  
Since 1 July heating degree days 1450 1712  
Cooling Degree Days 0 0  
Month to date cooling degree days 0 0  
Year to date cooling degree days 807 690  
Moisture  
Dew Point 17 °F    
Average Humidity 49    
Maximum Humidity 73    
Minimum Humidity 38    
Precipitation  
Precipitation 0.00 in 0.04 in 0.68 in (1954)
Month to date precipitation 0.04 1.36  
Year to date precipitation 23.66 25.69  
Snow  
Snow 0.00 in 0.30 in 7.60 in (1954)
Month to date snowfall 0.1 7.4  
Since 1 July snowfall 0.1 8.7  
Since 1 September snowfall 0.1 8.7  
Snow Depth 0.00 in    
Sea Level Pressure  
Sea Level Pressure 29.96 in    
Wind  
Wind Speed 8 mph (SE)    
Max Wind Speed 15 mph    
Max Gust Speed -    
Visibility 10 miles    
Events      
T = Trace of Precipitation, MM = Missing Value Source: NWS Daily Summary

Daily Weather History Graph

Daily Weather History Graph

Search for Another Location

Airport or City:

Trip Planner

Search our weather history database for the weather conditions in past years. The results will help you decide how hot, cold, wet, or windy it might be!

Date:

Astronomy

Nov. 30, 2011 Rise Set
Actual Time 7:38 AM CST 4:52 PM CST
Civil Twilight 7:06 AM CST 5:24 PM CST
Nautical Twilight 6:31 AM CST 5:59 PM CST
Astronomical Twilight 5:56 AM CST 6:34 PM CST
Moon 11:52 AM CST (11/30) 10:56 PM CST (11/30)
Length of Visible Light 10h 17m
Length of Day
9h 13m
Waxing Crescent, 34% of the Moon is Illuminated
Nov 30
Waxing Crescent
Dec 2
First Quarter
Dec 10
Full
Dec 17
Last Quarter
Dec 24
New

Hourly Weather History & Observations

Time (CST) Temp. Windchill Dew Point Humidity Pressure Visibility Wind Dir Wind Speed Gust Speed Precip Events Conditions
12:56 AM 30.9 °F 22.8 °F 8.1 °F 38% 30.08 in 10.0 mi South 9.2 mph - N/A   Clear
1:56 AM 30.9 °F 25.2 °F 9.0 °F 40% 30.05 in 10.0 mi SSW 5.8 mph - N/A   Clear
2:56 AM 28.9 °F 21.1 °F 10.9 °F 47% 30.04 in 10.0 mi SSW 8.1 mph - N/A   Clear
3:56 AM 30.0 °F 22.4 °F 12.0 °F 47% 30.01 in 10.0 mi SSW 8.1 mph - N/A   Clear
4:56 AM 27.0 °F 20.5 °F 12.9 °F 56% 30.00 in 10.0 mi South 5.8 mph - N/A   Clear
5:56 AM 30.0 °F 24.1 °F 12.9 °F 49% 29.97 in 10.0 mi SSW 5.8 mph - N/A   Clear
6:56 AM 30.0 °F 23.2 °F 14.0 °F 51% 29.96 in 10.0 mi South 6.9 mph - N/A   Clear
7:56 AM 30.0 °F 23.2 °F 14.0 °F 51% 29.95 in 10.0 mi South 6.9 mph - N/A   Clear
8:56 AM 30.9 °F 23.5 °F 15.1 °F 52% 29.95 in 10.0 mi South 8.1 mph - N/A   Clear
9:56 AM 34.0 °F 28.0 °F 17.1 °F 50% 29.94 in 10.0 mi SSW 6.9 mph - N/A   Clear
10:56 AM 36.0 °F 32.1 °F 18.0 °F 48% 29.93 in 10.0 mi SSW 4.6 mph - N/A   Clear
11:56 AM 39.9 °F 35.1 °F 19.0 °F 43% 29.90 in 10.0 mi SSW 6.9 mph - N/A   Partly Cloudy
12:56 PM 39.9 °F 37.8 °F 19.0 °F 43% 29.86 in 10.0 mi ESE 3.5 mph - N/A   Partly Cloudy
1:56 PM 42.1 °F 37.7 °F 19.9 °F 41% 29.84 in 10.0 mi SE 6.9 mph - N/A   Scattered Clouds
2:56 PM 44.1 °F 40.8 °F 21.9 °F 42% 29.84 in 10.0 mi ESE 5.8 mph - N/A   Partly Cloudy
3:56 PM 43.0 °F 38.8 °F 21.9 °F 43% 29.86 in 10.0 mi ENE 6.9 mph - N/A   Clear
4:56 PM 39.2 °F 33.0 °F 19.4 °F 45% 29.84 in 10.0 mi NNE 9.2 mph - N/A   Partly Cloudy
5:56 PM 37.9 °F 32.7 °F 19.9 °F 48% 29.93 in 10.0 mi NE 6.9 mph - N/A   Partly Cloudy
6:56 PM 37.4 °F 30.8 °F 19.4 °F 48% 29.90 in 10.0 mi NNE 9.2 mph - N/A   Scattered Clouds
7:56 PM 37.0 °F 29.8 °F 19.9 °F 50% 29.97 in 10.0 mi NE 10.4 mph - N/A   Scattered Clouds
8:56 PM 36.0 °F 28.0 °F 21.0 °F 55% 30.00 in 10.0 mi NNE 11.5 mph - N/A   Scattered Clouds
9:56 PM 35.1 °F 26.9 °F 24.1 °F 64% 30.04 in 10.0 mi NNE 11.5 mph - N/A   Scattered Clouds
10:56 PM 35.1 °F 25.5 °F 24.1 °F 64% 30.07 in 10.0 mi NNE 15.0 mph - N/A   Scattered Clouds
11:56 PM 34.0 °F 24.6 °F 26.1 °F 73% 30.10 in 10.0 mi NNE 13.8 mph - N/A   Scattered Clouds